Regional Weather Roundup
Issued by NWS Sioux Falls, SD

Home | Current Version | Previous Version | Graphics & Text | Print | Product List | Glossary Off
Versions: 1 2 3 4 5 6 7 8 9 10 11 12 13 14 15 16 17 18 19 20 21 22 23 24 25 26 27 28 29 30 31 32 33 34 35 36 37 38 39 40 41 42 43 44 45 46 47 48 49 50

000
ASUS43 KFSD 031202
RWRFSD

WEATHER ROUNDUP FOR SE SOUTH DAKOTA/SW MINNESOTA/NW IOWA
NATIONAL WEATHER SERVICE SIOUX FALLS SD
700 AM CDT FRI JUL 03 2015

NOTE: "FAIR" INDICATES FEW OR NO CLOUDS BELOW 12,000 FEET WITH NO
SIGNIFICANT WEATHER AND OR OBSTRUCTIONS TO VISIBILITY.


SDZ038>040-050-052>070-031300-
SOUTHEAST SOUTH DAKOTA

CITY           SKY/WX    TMP DP  RH WIND       PRES   REMARKS
BROOKINGS      SUNNY     54  52  94 CALM      30.04R
CHAMBERLAIN    FOG       62  62 100 CALM      30.02R VSB<1/4
6HR MIN TEMP:  60; 6HR MAX TEMP:  63;

HURON          FOG       58  58 100 CALM      30.00R VSB 1/2
6HR MIN TEMP:  57; 6HR MAX TEMP:  61;

MADISON        FAIR      54  54 100 SW5       30.02S
MITCHELL       FOG       62  61  96 CALM      30.02R VSB<1/4
6HR MIN TEMP:  58; 6HR MAX TEMP:  62;

SIOUX FALLS    FOG       53  51  93 CALM      30.02R VSB 1/2
6HR MIN TEMP:  51; 6HR MAX TEMP:  58;

WINNER         FAIR      62  59  90 CALM      30.03R FOG
YANKTON        MOCLDY    57  55  94 CALM      30.01R
$$

MNZ071-072-080-081-089-090-097-098-031300-
SOUTHWEST MINNESOTA

CITY           SKY/WX    TMP DP  RH WIND       PRES   REMARKS
FAIRMONT       SUNNY     54  46  76 CALM      30.01R
JACKSON        SUNNY     54  52  94 W3        30.02S FOG
LUVERNE        CLOUDY    52  50  93 CALM      30.03R VSB<1/4
MARSHALL       SUNNY     55  50  82 W5        29.99S
6HR MIN TEMP:  54; 6HR MAX TEMP:  57;

MONTEVIDEO     SUNNY     55  52  88 MISG      30.00S
PIPESTONE      SUNNY     54  54 100 CALM      30.02S FOG
REDWOOD FALLS  SUNNY     55  52  89 CALM      30.00R
TRACY          SUNNY     57  54  90 SW6       30.01S
WINDOM         SUNNY     54  52  94 CALM      30.02R
WORTHINGTON    SUNNY     54  50  87 W5        30.02S
$$

IAZ001>003-012>014-020>022-031-032-NEZ013-014-SDZ071-031300-
NORTHWEST IOWA

CITY           SKY/WX    TMP DP  RH WIND       PRES   REMARKS
DENISON        SUNNY     52  52 100 CALM      30.00S FOG
ESTHERVILLE    SUNNY     50  49  96 W5        30.02R
SIOUX CITY     FOG       54  52  93 NW3       30.02R VSB 1/4
6HR MIN TEMP:  52; 6HR MAX TEMP:  62;

SPENCER        FOG       48  45  89 CALM      30.02S VSB 1/4
6HR MIN TEMP:  44; 6HR MAX TEMP:  51;

$$

ABBREVIATIONS USED IN REMARKS
   TC - TEMPERATURE IN CELSIUS
  WCI - WIND CHILL INDEX
   HX - HEAT INDEX
  VSB - VISIBILITY




USA.gov is the U.S. government's official web portal to all federal, state and local government web resources and services.